FW0027 Weather Reports


Display with metric or nautical units.
time (UTC)temp
F
wind
direction
speed
MPH
gust
MPH
rain 1hr
in
rain 24hr
in
rain mn
in
humidity
%
barometer
mb
20260504140513 85 126 7.0 17.0 0.00 0.00 0.00 68 1012.6
20260504140112 84 130 10.0 18.0 0.00 0.00 0.00 68 1012.8
20260504130222 85 125 8.0 14.0 0.00 0.00 0.00 70 1012.3
20260504120156 86 108 7.0 13.0 0.00 0.00 0.00 69 1012.1
20260504100106 88 116 8.0 15.0 0.00 0.00 0.00 63 1010.8
20260504090124 90 113 8.0 16.0 0.00 0.00 0.00 63 1010.2
20260504081603 92 121 9.0 19.0 0.00 0.00 0.00 58 1010.4
20260504081545 93 114 8.0 18.0 0.00 0.00 0.00 58 1010.4
20260504080515 93 98 9.0 19.0 0.00 0.00 0.00 57 1010.4
20260504060105 93 106 12.0 21.0 0.00 0.00 0.00 54 1011.5
20260504050004 93 154 11.0 18.0 0.00 0.00 0.00 56 1012.4
20260504044606 92 154 10.0 19.0 0.00 0.00 0.00 56 1012.7
20260504043709 93 123 8.0 17.0 0.00 0.00 0.00 56 1012.8
20260504043004 92 96 9.0 16.0 0.00 0.00 0.00 55 1012.9
20260504042637 93 113 8.0 15.0 0.00 0.00 0.00 56 1012.8
20260504041642 93 122 7.0 15.0 0.00 0.00 0.00 55 1013.3
20260504041503 92 119 9.0 16.0 0.00 0.00 0.00 56 1013.2
20260504040650 92 117 6.0 15.0 0.00 0.00 0.00 58 1013.3
20260504040107 91 118 8.0 16.0 0.00 0.00 0.00 58 1013.6
20260504035629 91 124 6.0 12.0 0.00 0.00 0.00 60 1013.6
20260504034623 90 127 7.0 12.0 0.00 0.00 0.00 62 1013.7
20260504034503 90 122 8.0 13.0 0.00 0.00 0.00 62 1013.9
20260504033116 91 106 8.0 12.0 0.00 0.00 0.00 60 1013.9
20260504032443 92 106 5.0 13.0 0.00 0.00 0.00 60 1013.9
20260504031603 91 109 6.0 14.0 0.00 0.00 0.00 60 1013.9
20260504031430 92 109 5.0 13.0 0.00 0.00 0.00 61 1013.9
20260504030430 91 122 6.0 13.0 0.00 0.00 0.00 61 1014.1
20260504030003 91 131 6.0 14.0 0.00 0.00 0.00 61 1014.2
20260504025417 90 105 7.0 13.0 0.00 0.00 0.00 63 1014.2
20260504024607 90 113 9.0 14.0 0.00 0.00 0.00 63 1014.4
20260504023226 90 112 7.0 13.0 0.00 0.00 0.00 63 1014.4
20260504022218 90 114 7.0 13.0 0.00 0.00 0.00 63 1014.4
20260504021504 89 115 8.0 14.0 0.00 0.00 0.00 64 1014.5
20260504021227 89 114 7.0 13.0 0.00 0.00 0.00 65 1014.5
20260504020226 89 126 6.0 12.0 0.00 0.00 0.00 66 1014.6
20260504020104 88 123 7.0 13.0 0.00 0.00 0.00 66 1014.7
20260504015221 88 122 7.0 13.0 0.00 0.00 0.00 65 1014.8
20260504014505 88 115 5.0 14.0 0.00 0.00 0.00 66 1014.8
20260504014147 89 116 6.0 13.0 0.00 0.00 0.00 64 1014.8
20260504013134 88 115 7.0 12.0 0.00 0.00 0.00 66 1014.7
20260504013106 87 114 6.0 13.0 0.00 0.00 0.00 66 1014.7
20260504011602 87 115 9.0 15.0 0.00 0.00 0.00 67 1014.8
20260504011055 87 92 5.0 14.0 0.00 0.00 0.00 69 1014.7
20260504010114 86 111 5.0 12.0 0.00 0.00 0.00 71 1014.6
20260504010112 86 112 7.0 13.0 0.00 0.00 0.00 71 1014.6
20260504005052 83 111 3.0 8.0 0.00 0.00 0.00 77 1014.7
20260504004505 82 113 4.0 8.0 0.00 0.00 0.00 80 1014.8
20260504004058 82 114 4.0 9.0 0.00 0.00 0.00 80 1014.8
20260504003121 82 125 6.0 11.0 0.00 0.00 0.00 81 1014.7
20260504003106 81 125 7.0 10.0 0.00 0.00 0.00 81 1014.9
20260504002140 82 125 6.0 12.0 0.00 0.00 0.00 80 1014.6
20260504001615 82 121 7.0 13.0 0.00 0.00 0.00 78 1014.6
20260504001131 83 116 7.0 13.0 0.00 0.00 0.00 77 1014.5
20260504000107 84 107 7.0 14.0 0.00 0.00 0.00 74 1014.2
20260504000002 83 103 8.0 14.0 0.00 0.00 0.00 74 1014.3
20260503235102 84 114 6.0 14.0 0.00 0.00 0.00 73 1014.0
20260503234603 83 121 7.0 15.0 0.00 0.00 0.00 74 1014.0
20260503234031 84 105 3.0 10.0 0.00 0.00 0.00 73 1013.9
20260503233002 84 105 5.0 10.0 0.00 0.00 0.00 72 1013.9
20260503231848 84 102 3.0 8.0 0.00 0.00 0.00 70 1013.6
20260503231502 83 103 5.0 10.0 0.00 0.00 0.00 70 1013.6
20260503230852 83 98 1.0 6.0 0.00 0.00 0.00 72 1013.4
20260503224504 82 98 2.0 4.0 0.00 0.00 0.00 73 1013.4
20260503223646 82 98 1.0 4.0 0.00 0.00 0.00 72 1013.2
20260503223102 81 98 3.0 5.0 0.00 0.00 0.00 72 1013.1
20260503221603 81 98 0.0 4.0 0.00 0.00 0.00 73 1013.0
20260503221505 81 98 0.0 4.0 0.00 0.00 0.00 73 1013.0
20260503220528 81 98 0.0 4.0 0.00 0.00 0.00 73 1012.9
20260503220006 81 98 1.0 5.0 0.00 0.00 0.00 74 1013.0
20260503215549 81 98 1.0 4.0 0.00 0.00 0.00 74 1013.0
20260503214602 81 98 0.0 5.0 0.00 0.00 0.00 74 1012.9
20260503214556 81 98 0.0 5.0 0.00 0.00 0.00 74 1012.9
20260503213601 81 98 1.0 5.0 0.00 0.00 0.00 74 1012.9
20260503213008 81 98 0.0 4.0 0.00 0.00 0.00 74 1013.0
20260503211507 81 98 2.0 4.0 0.00 0.00 0.00 74 1013.1
20260503211439 81 98 0.0 3.0 0.00 0.00 0.00 74 1013.0
20260503210455 81 98 0.0 0.0 0.00 0.00 0.00 73 1013.1
20260503204504 81 98 1.0 5.0 0.00 0.00 0.00 73 1012.8
20260503204255 82 98 1.0 4.0 0.00 0.00 0.00 73 1012.7
20260503203232 82 98 0.0 4.0 0.00 0.00 0.00 74 1012.6
20260503203102 81 98 0.0 5.0 0.00 0.00 0.00 74 1012.7
20260503201603 82 98 2.0 6.0 0.00 0.00 0.00 72 1012.6
20260503201111 82 98 1.0 6.0 0.00 0.00 0.00 72 1012.5
20260503200108 82 98 2.0 6.0 0.00 0.00 0.00 72 1012.5
20260503200002 82 98 1.0 7.0 0.00 0.00 0.00 72 1012.6
20260503195116 82 98 2.0 8.0 0.00 0.00 0.00 72 1012.4
20260503194604 82 98 2.0 5.0 0.00 0.00 0.00 72 1012.5
20260503193010 82 98 4.0 7.0 0.00 0.00 0.00 73 1012.2
20260503193003 82 98 4.0 8.0 0.00 0.00 0.00 73 1012.3
20260503192008 83 96 3.0 10.0 0.00 0.00 0.00 73 1012.1
20260503191502 82 96 4.0 8.0 0.00 0.00 0.00 73 1012.1
20260503184642 83 104 5.0 11.0 0.00 0.00 0.00 73 1012.1
20260503184503 82 106 3.0 11.0 0.00 0.00 0.00 73 1012.2
20260503183632 83 110 7.0 11.0 0.00 0.00 0.00 73 1012.1
20260503183114 82 109 7.0 12.0 0.00 0.00 0.00 73 1012.1
20260503182621 83 107 7.0 12.0 0.00 0.00 0.00 73 1012.0
20260503181638 83 109 7.0 12.0 0.00 0.00 0.00 73 1012.0
20260503181624 82 110 8.0 13.0 0.00 0.00 0.00 73 1012.1
20260503180633 83 107 7.0 12.0 0.00 0.00 0.00 73 1012.1
20260503175622 83 111 6.0 14.0 0.00 0.00 0.00 73 1012.1
20260503174623 83 104 7.0 14.0 0.00 0.00 0.00 73 1012.1
20260503174602 83 103 7.0 15.0 0.00 0.00 0.00 73 1012.2
20260503173603 83 101 6.0 13.0 0.00 0.00 0.00 74 1012.1
20260503173009 82 100 7.0 13.0 0.00 0.00 0.00 74 1012.2
20260503172554 83 120 7.0 12.0 0.00 0.00 0.00 73 1012.1
20260503171529 83 104 8.0 15.0 0.00 0.00 0.00 74 1012.2
20260503171503 82 103 7.0 16.0 0.00 0.00 0.00 74 1012.3
20260503170455 83 115 10.0 17.0 0.00 0.00 0.00 74 1012.2
20260503170105 82 119 11.0 18.0 0.00 0.00 0.00 74 1012.2
20260503150331 84 119 8.0 18.0 0.00 0.00 0.00 74 1012.3
20260503150108 83 115 9.0 19.0 0.00 0.00 0.00 74 1012.4